Time,TemperatureF,DewpointF,PressureIn,WindDirection,WindDirectionDegrees,WindSpeedMPH,WindSpeedGustMPH,Humidity,HourlyPrecipIn,Conditions,Clouds,dailyrainin,SoftwareType,DateUTC
2013-05-29 00:01:00,71.2,62.1,30.17,NNE,22,4.6,4.6,73,0.00,CLR,SKC,0.00,WeatherDisplay:10.37,2013-05-29 04:01:00,
2013-05-29 00:02:00,71.2,62.1,30.17,NNE,22,3.8,3.8,73,0.00,CLR,SKC,0.00,WeatherDisplay:10.37,2013-05-29 04:02:00,
2013-05-29 00:03:00,71.2,62.1,30.18,NNE,22,3.8,3.8,73,0.00,CLR,SKC,0.00,WeatherDisplay:10.37,2013-05-29 04:03:00,
2013-05-29 00:06:00,71.4,62.7,30.18,North,0,3.8,3.8,74,0.00,CLR,SKC,0.00,WeatherDisplay:10.37,2013-05-29 04:06:00,
2013-05-29 00:11:00,70.9,62.2,30.18,North,0,4.5,4.5,74,0.00,CLR,SKC,0.00,WeatherDisplay:10.37,2013-05-29 04:11:00,
2013-05-29 00:16:00,70.5,61.8,30.17,NW,315,3.8,3.8,74,0.00,CLR,SKC,0.00,WeatherDisplay:10.37,2013-05-29 04:16:00,
2013-05-29 00:17:00,70.5,62.2,30.18,NW,315,3.8,3.8,75,0.00,CLR,SKC,0.00,WeatherDisplay:10.37,2013-05-29 04:17:00,
2013-05-29 00:22:00,70.3,62.0,30.17,NW,315,4.5,4.5,75,0.00,CLR,SKC,0.00,WeatherDisplay:10.37,2013-05-29 04:22:00,
2013-05-29 00:27:00,70.3,62.0,30.17,NE,45,8.1,8.1,75,0.00,CLR,SKC,0.00,WeatherDisplay:10.37,2013-05-29 04:27:00,
2013-05-29 00:32:00,70.2,61.9,30.18,North,0,4.6,4.6,75,0.00,CLR,SKC,0.00,WeatherDisplay:10.37,2013-05-29 04:32:00,
2013-05-29 00:37:00,70.2,62.2,30.18,WNW,292,3.8,3.8,76,0.00,CLR,SKC,0.00,WeatherDisplay:10.37,2013-05-29 04:37:00,
2013-05-29 00:42:00,70.0,62.1,30.17,NNE,22,4.6,4.6,76,0.00,CLR,SKC,0.00,WeatherDisplay:10.37,2013-05-29 04:42:00,
2013-05-29 00:47:00,69.6,62.1,30.17,NNW,338,4.6,4.6,77,0.00,CLR,SKC,0.00,WeatherDisplay:10.37,2013-05-29 04:47:00,
2013-05-29 00:52:00,69.6,62.5,30.18,North,0,4.6,4.6,78,0.00,CLR,SKC,0.00,WeatherDisplay:10.37,2013-05-29 04:52:00,
2013-05-29 00:57:00,69.6,62.5,30.17,NE,45,6.9,6.9,78,0.00,CLR,SKC,0.00,WeatherDisplay:10.37,2013-05-29 04:57:00,
2013-05-29 01:02:00,69.6,62.5,30.17,NW,315,5.8,5.8,78,0.00,CLR,SKC,0.00,WeatherDisplay:10.37,2013-05-29 05:02:00,
2013-05-29 01:07:00,69.4,62.3,30.18,West,270,6.0,6.0,78,0.00,CLR,SKC,0.00,WeatherDisplay:10.37,2013-05-29 05:07:00,
2013-05-29 01:12:00,69.1,62.3,30.17,NW,315,7.6,7.6,79,0.00,CLR,SKC,0.00,WeatherDisplay:10.37,2013-05-29 05:12:00,
2013-05-29 01:17:00,69.1,62.3,30.17,West,270,6.9,6.9,79,0.00,CLR,SKC,0.00,WeatherDisplay:10.37,2013-05-29 05:17:00,
2013-05-29 01:22:00,69.1,62.3,30.17,North,0,5.8,5.8,79,0.00,CLR,SKC,0.00,WeatherDisplay:10.37,2013-05-29 05:22:00,
2013-05-29 01:27:00,68.9,62.1,30.17,North,0,5.8,5.8,79,0.00,CLR,SKC,0.00,WeatherDisplay:10.37,2013-05-29 05:27:00,
2013-05-29 01:32:00,68.7,62.3,30.17,North,0,7.6,7.6,80,0.00,CLR,SKC,0.00,WeatherDisplay:10.37,2013-05-29 05:32:00,
2013-05-29 01:37:00,68.7,62.3,30.17,North,0,5.8,5.8,80,0.00,CLR,SKC,0.00,WeatherDisplay:10.37,2013-05-29 05:37:00,
2013-05-29 01:42:00,68.5,62.5,30.18,North,0,6.9,6.9,81,0.00,CLR,SKC,0.00,WeatherDisplay:10.37,2013-05-29 05:42:00,
2013-05-29 01:47:00,68.4,62.3,30.17,North,0,6.9,6.9,81,0.00,CLR,SKC,0.00,WeatherDisplay:10.37,2013-05-29 05:47:00,
2013-05-29 01:52:00,68.4,62.3,30.17,North,0,5.8,5.8,81,0.00,CLR,SKC,0.00,WeatherDisplay:10.37,2013-05-29 05:52:00,
2013-05-29 01:57:00,68.4,62.6,30.17,NW,315,4.6,4.6,82,0.00,CLR,SKC,0.00,WeatherDisplay:10.37,2013-05-29 05:57:00,
2013-05-29 02:02:00,68.2,62.5,30.17,NNE,22,5.8,5.8,82,0.00,CLR,SKC,0.00,WeatherDisplay:10.37,2013-05-29 06:02:00,
2013-05-29 02:07:00,67.8,62.8,30.17,West,270,3.5,3.5,84,0.00,CLR,SKC,0.00,WeatherDisplay:10.37,2013-05-29 06:07:00,
2013-05-29 02:12:00,67.5,62.5,30.17,NW,315,4.6,4.6,84,0.00,CLR,SKC,0.00,WeatherDisplay:10.37,2013-05-29 06:12:00,
2013-05-29 02:17:00,67.5,62.8,30.17,NW,315,4.6,4.6,85,0.00,CLR,SKC,0.00,WeatherDisplay:10.37,2013-05-29 06:17:00,
2013-05-29 02:22:00,67.3,62.6,30.16,WNW,292,4.6,4.6,85,0.00,CLR,SKC,0.00,WeatherDisplay:10.37,2013-05-29 06:22:00,
2013-05-29 02:27:00,67.1,62.4,30.17,North,0,4.6,4.6,85,0.00,CLR,SKC,0.00,WeatherDisplay:10.37,2013-05-29 06:27:00,
2013-05-29 02:32:00,67.1,62.8,30.16,NW,315,3.5,3.5,86,0.00,CLR,SKC,0.00,WeatherDisplay:10.37,2013-05-29 06:32:00,
2013-05-29 02:37:00,67.1,62.8,30.16,NW,315,5.8,5.8,86,0.00,CLR,SKC,0.00,WeatherDisplay:10.37,2013-05-29 06:37:00,
2013-05-29 02:42:00,67.1,62.8,30.16,North,0,3.5,3.5,86,0.00,CLR,SKC,0.00,WeatherDisplay:10.37,2013-05-29 06:42:00,
2013-05-29 02:47:00,67.1,63.1,30.16,NW,315,5.8,5.8,87,0.00,CLR,SKC,0.00,WeatherDisplay:10.37,2013-05-29 06:47:00,
2013-05-29 02:52:00,66.9,62.9,30.16,NW,315,4.6,4.6,87,0.00,CLR,SKC,0.00,WeatherDisplay:10.37,2013-05-29 06:52:00,
2013-05-29 02:57:00,66.9,62.9,30.16,North,0,5.8,5.8,87,0.00,CLR,SKC,0.00,WeatherDisplay:10.37,2013-05-29 06:57:00,
2013-05-29 03:02:00,66.9,63.2,30.16,North,0,6.0,6.0,88,0.00,CLR,SKC,0.00,WeatherDisplay:10.37,2013-05-29 07:02:00,
2013-05-29 03:07:00,66.7,63.1,30.16,WNW,292,5.8,5.8,88,0.00,CLR,SKC,0.00,WeatherDisplay:10.37,2013-05-29 07:07:00,
2013-05-29 03:12:00,66.7,63.1,30.16,NW,315,6.0,6.0,88,0.00,CLR,SKC,0.00,WeatherDisplay:10.37,2013-05-29 07:12:00,
2013-05-29 03:17:00,66.7,63.1,30.16,North,0,5.8,5.8,88,0.00,CLR,SKC,0.00,WeatherDisplay:10.37,2013-05-29 07:17:00,
2013-05-29 03:22:00,66.6,63.2,30.17,NW,315,3.5,3.5,89,0.00,CLR,SKC,0.00,WeatherDisplay:10.37,2013-05-29 07:22:00,
2013-05-29 03:27:00,66.6,63.2,30.16,SW,225,3.5,3.5,89,0.00,CLR,SKC,0.00,WeatherDisplay:10.37,2013-05-29 07:27:00,
2013-05-29 03:32:00,66.4,63.0,30.16,North,0,4.6,4.6,89,0.00,CLR,SKC,0.00,WeatherDisplay:10.37,2013-05-29 07:32:00,
2013-05-29 03:37:00,66.4,63.4,30.16,North,0,3.8,3.8,90,0.00,CLR,SKC,0.00,WeatherDisplay:10.37,2013-05-29 07:37:00,
2013-05-29 03:42:00,66.4,63.4,30.17,North,0,4.6,4.6,90,0.00,CLR,SKC,0.00,WeatherDisplay:10.37,2013-05-29 07:42:00,
2013-05-29 03:47:00,66.4,63.4,30.17,NW,315,5.8,5.8,90,0.00,CLR,SKC,0.00,WeatherDisplay:10.37,2013-05-29 07:47:00,
2013-05-29 03:52:00,66.2,63.5,30.17,West,270,5.4,5.4,91,0.00,CLR,SKC,0.00,WeatherDisplay:10.37,2013-05-29 07:52:00,
2013-05-29 03:57:00,66.2,63.5,30.17,NW,315,4.6,4.6,91,0.00,CLR,SKC,0.00,WeatherDisplay:10.37,2013-05-29 07:57:00,
2013-05-29 04:02:00,66.0,63.6,30.17,NW,315,3.5,3.5,92,0.00,CLR,SKC,0.00,WeatherDisplay:10.37,2013-05-29 08:02:00,
2013-05-29 04:07:00,66.0,63.6,30.17,NW,315,3.5,3.5,92,0.00,CLR,SKC,0.00,WeatherDisplay:10.37,2013-05-29 08:07:00,
2013-05-29 04:12:00,65.8,63.8,30.17,North,0,3.5,3.5,93,0.00,CLR,SKC,0.00,WeatherDisplay:10.37,2013-05-29 08:12:00,
2013-05-29 04:17:00,65.7,63.6,30.18,NE,45,2.3,2.3,93,0.00,CLR,SKC,0.00,WeatherDisplay:10.37,2013-05-29 08:17:00,
2013-05-29 04:22:00,65.3,63.2,30.18,NW,315,2.3,2.3,93,0.00,CLR,SKC,0.00,WeatherDisplay:10.37,2013-05-29 08:22:00,
2013-05-29 04:27:00,59.4,58.2,30.16,East,90,3.5,3.5,96,0.00,CLR,SKC,0.00,WeatherDisplay:10.37,2013-05-29 08:27:00,
2013-05-29 04:32:00,64.9,63.2,30.18,North,0,2.3,2.3,94,0.00,CLR,SKC,0.00,WeatherDisplay:10.37,2013-05-29 08:32:00,
2013-05-29 04:37:00,64.6,62.8,30.18,North,0,1.1,0.0,94,0.00,CLR,SKC,0.00,WeatherDisplay:10.37,2013-05-29 08:37:00,
2013-05-29 04:42:00,64.2,62.2,30.18,North,0,1.1,0.0,93,0.00,CLR,SKC,0.00,WeatherDisplay:10.37,2013-05-29 08:42:00,
2013-05-29 04:47:00,64.0,62.0,30.18,NW,315,2.3,2.3,93,0.00,CLR,SKC,0.00,WeatherDisplay:10.37,2013-05-29 08:47:00,
2013-05-29 04:52:00,64.0,62.0,30.18,North,0,2.3,2.3,93,0.00,CLR,SKC,0.00,WeatherDisplay:10.37,2013-05-29 08:52:00,
2013-05-29 04:57:00,64.0,62.3,30.18,NW,315,2.3,2.3,94,0.00,CLR,SKC,0.00,WeatherDisplay:10.37,2013-05-29 08:57:00,
2013-05-29 05:02:00,64.0,62.3,30.18,SW,225,1.1,0.0,94,0.00,CLR,SKC,0.00,WeatherDisplay:10.37,2013-05-29 09:02:00,
2013-05-29 05:07:00,63.9,62.1,30.19,NW,315,2.2,2.2,94,0.00,CLR,SKC,0.00,WeatherDisplay:10.37,2013-05-29 09:07:00,
2013-05-29 05:12:00,63.9,62.4,30.19,North,0,2.3,2.3,95,0.00,CLR,SKC,0.00,WeatherDisplay:10.37,2013-05-29 09:12:00,
2013-05-29 05:17:00,63.7,62.2,30.19,North,0,1.1,0.0,95,0.00,CLR,SKC,0.00,WeatherDisplay:10.37,2013-05-29 09:17:00,
2013-05-29 05:22:00,63.7,62.2,30.18,NW,315,2.3,2.3,95,0.00,CLR,SKC,0.00,WeatherDisplay:10.37,2013-05-29 09:22:00,
2013-05-29 05:27:00,63.7,62.2,30.19,NW,315,0.0,0.0,95,0.00,CLR,SKC,0.00,WeatherDisplay:10.37,2013-05-29 09:27:00,
2013-05-29 05:32:00,63.7,62.5,30.19,South,180,1.1,0.0,96,0.00,CLR,SKC,0.00,WeatherDisplay:10.37,2013-05-29 09:32:00,
2013-05-29 05:37:00,63.3,62.2,30.19,South,180,0.0,0.0,96,0.00,CLR,SKC,0.00,WeatherDisplay:10.37,2013-05-29 09:37:00,
2013-05-29 05:42:00,63.1,61.7,30.18,South,180,0.0,0.0,95,0.00,CLR,SKC,0.00,WeatherDisplay:10.37,2013-05-29 09:42:00,
2013-05-29 05:47:00,63.1,61.7,30.19,South,180,0.0,0.0,95,0.00,CLR,SKC,0.00,WeatherDisplay:10.37,2013-05-29 09:47:00,
2013-05-29 05:52:00,63.0,61.5,30.19,South,180,0.0,0.0,95,0.00,CLR,SKC,0.00,WeatherDisplay:10.37,2013-05-29 09:52:00,
2013-05-29 05:57:00,62.8,61.3,30.19,South,180,0.0,0.0,95,0.00,CLR,SKC,0.00,WeatherDisplay:10.37,2013-05-29 09:57:00,
2013-05-29 06:02:00,62.8,61.3,30.19,South,180,0.0,0.0,95,0.00,CLR,SKC,0.00,WeatherDisplay:10.37,2013-05-29 10:02:00,
2013-05-29 06:07:00,62.8,61.3,30.20,North,0,0.0,0.0,95,0.00,CLR,SKC,0.00,WeatherDisplay:10.37,2013-05-29 10:07:00,
2013-05-29 06:12:00,62.6,61.1,30.20,North,0,0.0,0.0,95,0.00,CLR,SKC,0.00,WeatherDisplay:10.37,2013-05-29 10:12:00,
2013-05-29 06:17:00,62.4,61.3,30.20,North,0,0.0,0.0,96,0.00,CLR,SKC,0.00,WeatherDisplay:10.37,2013-05-29 10:17:00,
2013-05-29 06:22:00,62.4,61.6,30.20,North,0,1.6,1.6,97,0.00,CLR,SKC,0.00,WeatherDisplay:10.37,2013-05-29 10:22:00,
2013-05-29 06:27:00,62.2,61.4,30.20,North,0,1.6,1.6,97,0.00,CLR,SKC,0.00,WeatherDisplay:10.37,2013-05-29 10:27:00,
2013-05-29 06:32:00,62.2,61.4,30.20,North,0,2.3,2.3,97,0.00,CLR,SKC,0.00,WeatherDisplay:10.37,2013-05-29 10:32:00,
2013-05-29 06:37:00,62.4,61.6,30.20,North,0,1.1,0.0,97,0.00,CLR,SKC,0.00,WeatherDisplay:10.37,2013-05-29 10:37:00,
2013-05-29 06:42:00,62.8,61.9,30.20,North,0,2.3,2.3,97,0.00,CLR,SKC,0.00,WeatherDisplay:10.37,2013-05-29 10:42:00,
2013-05-29 06:47:00,63.0,62.1,30.20,North,0,1.1,0.0,97,0.00,CLR,SKC,0.00,WeatherDisplay:10.37,2013-05-29 10:47:00,
2013-05-29 06:52:00,63.5,62.6,30.20,North,0,3.5,3.5,97,0.00,CLR,SKC,0.00,WeatherDisplay:10.37,2013-05-29 10:52:00,
2013-05-29 06:57:00,64.2,63.4,30.20,North,0,3.5,3.5,97,0.00,CLR,SKC,0.00,WeatherDisplay:10.37,2013-05-29 10:57:00,
2013-05-29 07:02:00,64.6,64.3,30.20,North,0,3.5,3.5,99,0.00,CLR,SKC,0.00,WeatherDisplay:10.37,2013-05-29 11:02:00,
2013-05-29 07:07:00,65.1,64.8,30.21,North,0,3.5,3.5,99,0.00,CLR,SKC,0.00,WeatherDisplay:10.37,2013-05-29 11:07:00,
2013-05-29 07:12:00,65.7,65.4,30.20,North,0,4.6,4.6,99,0.00,CLR,SKC,0.00,WeatherDisplay:10.37,2013-05-29 11:12:00,
2013-05-29 07:17:00,66.2,65.6,30.21,North,0,3.5,3.5,98,0.00,CLR,SKC,0.00,WeatherDisplay:10.37,2013-05-29 11:17:00,
2013-05-29 07:22:00,67.1,66.2,30.20,WSW,248,3.8,3.8,97,0.00,CLR,SKC,0.00,WeatherDisplay:10.37,2013-05-29 11:22:00,
2013-05-29 07:27:00,68.0,66.5,30.21,North,0,6.0,6.0,95,0.00,CLR,SKC,0.00,WeatherDisplay:10.37,2013-05-29 11:27:00,
2013-05-29 07:32:00,68.5,66.7,30.21,WNW,292,5.8,5.8,94,0.00,CLR,SKC,0.00,WeatherDisplay:10.37,2013-05-29 11:32:00,
2013-05-29 07:37:00,69.1,67.0,30.21,NW,315,5.8,5.8,93,0.00,CLR,SKC,0.00,WeatherDisplay:10.37,2013-05-29 11:37:00,
2013-05-29 07:42:00,69.6,66.6,30.21,SW,225,5.8,5.8,90,0.00,CLR,SKC,0.00,WeatherDisplay:10.37,2013-05-29 11:42:00,
2013-05-29 07:47:00,70.0,65.9,30.21,South,180,5.8,0.0,87,0.00,CLR,SKC,0.00,WeatherDisplay:10.37,2013-05-29 11:47:00,
2013-05-29 07:52:00,70.3,66.3,30.21,NW,315,3.1,3.1,87,0.00,CLR,SKC,0.00,WeatherDisplay:10.37,2013-05-29 11:52:00,
2013-05-29 07:57:00,70.7,66.3,30.21,NW,315,3.8,3.8,86,0.00,CLR,SKC,0.00,WeatherDisplay:10.37,2013-05-29 11:57:00,
2013-05-29 08:02:00,70.9,65.8,30.21,North,0,3.5,3.5,84,0.00,CLR,SKC,0.00,WeatherDisplay:10.37,2013-05-29 12:02:00,
2013-05-29 08:07:00,71.4,66.3,30.21,SW,225,5.4,5.4,84,0.00,CLR,SKC,0.00,WeatherDisplay:10.37,2013-05-29 12:07:00,
2013-05-29 08:12:00,71.6,65.8,30.21,NW,315,5.8,5.8,82,0.00,CLR,SKC,0.00,WeatherDisplay:10.37,2013-05-29 12:12:00,
2013-05-29 08:17:00,71.8,65.6,30.22,North,0,5.8,5.8,81,0.00,CLR,SKC,0.00,WeatherDisplay:10.37,2013-05-29 12:17:00,
2013-05-29 08:22:00,72.0,65.8,30.22,SW,225,5.8,5.8,81,0.00,CLR,SKC,0.00,WeatherDisplay:10.37,2013-05-29 12:22:00,
2013-05-29 08:27:00,72.3,66.2,30.22,South,180,8.1,8.1,81,0.00,CLR,SKC,0.00,WeatherDisplay:10.37,2013-05-29 12:27:00,
2013-05-29 08:32:00,72.5,66.3,30.22,NW,315,5.8,5.8,81,0.00,CLR,SKC,0.00,WeatherDisplay:10.37,2013-05-29 12:32:00,
2013-05-29 08:37:00,72.7,66.2,30.22,South,180,5.8,5.8,80,0.00,CLR,SKC,0.00,WeatherDisplay:10.37,2013-05-29 12:37:00,
2013-05-29 08:42:00,73.2,66.7,30.22,SW,225,8.1,8.1,80,0.00,CLR,SKC,0.00,WeatherDisplay:10.37,2013-05-29 12:42:00,
2013-05-29 08:47:00,73.6,66.7,30.22,West,270,6.0,6.0,79,0.00,CLR,SKC,0.00,WeatherDisplay:10.37,2013-05-29 12:47:00,
2013-05-29 08:52:00,74.5,67.2,30.22,SW,225,4.6,4.6,78,0.00,CLR,SKC,0.00,WeatherDisplay:10.37,2013-05-29 12:52:00,
2013-05-29 08:57:00,76.3,68.2,30.22,West,270,3.8,3.8,76,0.00,CLR,SKC,0.00,WeatherDisplay:10.37,2013-05-29 12:57:00,
2013-05-29 09:02:00,78.4,67.4,30.22,SW,225,10.4,10.4,69,0.00,CLR,SKC,0.00,WeatherDisplay:10.37,2013-05-29 13:02:00,
2013-05-29 09:07:00,78.6,67.6,30.23,West,270,4.6,4.6,69,0.00,CLR,SKC,0.00,WeatherDisplay:10.37,2013-05-29 13:07:00,
2013-05-29 09:12:00,78.8,66.9,30.22,SW,225,4.6,4.6,67,0.00,CLR,SKC,0.00,WeatherDisplay:10.37,2013-05-29 13:12:00,
2013-05-29 09:17:00,79.0,67.1,30.23,South,180,5.8,5.8,67,0.00,CLR,SKC,0.00,WeatherDisplay:10.37,2013-05-29 13:17:00,
2013-05-29 09:22:00,79.0,66.6,30.23,West,270,6.9,6.9,66,0.00,CLR,SKC,0.00,WeatherDisplay:10.37,2013-05-29 13:22:00,
2013-05-29 09:27:00,79.2,67.3,30.23,WSW,248,3.5,3.5,67,0.00,CLR,SKC,0.00,WeatherDisplay:10.37,2013-05-29 13:27:00,
2013-05-29 09:32:00,79.3,67.0,30.23,NW,315,8.3,8.3,66,0.00,CLR,SKC,0.00,WeatherDisplay:10.37,2013-05-29 13:32:00,
2013-05-29 09:37:00,79.2,66.4,30.22,SW,225,6.9,6.9,65,0.00,CLR,SKC,0.00,WeatherDisplay:10.37,2013-05-29 13:37:00,
2013-05-29 09:42:00,78.8,66.0,30.22,NNW,338,5.8,5.8,65,0.00,CLR,SKC,0.00,WeatherDisplay:10.37,2013-05-29 13:42:00,
2013-05-29 09:47:00,80.1,67.2,30.22,South,180,4.6,4.6,65,0.00,CLR,SKC,0.00,WeatherDisplay:10.37,2013-05-29 13:47:00,
2013-05-29 09:52:00,80.8,66.5,30.23,NW,315,10.4,10.4,62,0.00,CLR,SKC,0.00,WeatherDisplay:10.37,2013-05-29 13:52:00,
2013-05-29 09:57:00,80.2,66.0,30.23,South,180,6.9,6.9,62,0.00,CLR,SKC,0.00,WeatherDisplay:10.37,2013-05-29 13:57:00,
2013-05-29 10:02:00,80.2,66.0,30.22,West,270,6.9,6.9,62,0.00,CLR,SKC,0.00,WeatherDisplay:10.37,2013-05-29 14:02:00,
2013-05-29 10:07:00,80.8,66.5,30.22,West,270,6.9,6.9,62,0.00,CLR,SKC,0.00,WeatherDisplay:10.37,2013-05-29 14:07:00,
2013-05-29 10:12:00,81.1,66.4,30.22,NW,315,5.8,5.8,61,0.00,CLR,SKC,0.00,WeatherDisplay:10.37,2013-05-29 14:12:00,
2013-05-29 10:17:00,81.5,66.3,30.22,NW,315,5.4,5.4,60,0.00,CLR,SKC,0.00,WeatherDisplay:10.37,2013-05-29 14:17:00,
2013-05-29 10:22:00,81.5,66.8,30.23,NE,45,4.6,4.6,61,0.00,CLR,SKC,0.00,WeatherDisplay:10.37,2013-05-29 14:22:00,
2013-05-29 10:27:00,82.9,66.6,30.22,North,0,7.6,7.6,58,0.00,CLR,SKC,0.00,WeatherDisplay:10.37,2013-05-29 14:27:00,
2013-05-29 10:32:00,82.4,65.1,30.22,NW,315,9.2,9.2,56,0.00,CLR,SKC,0.00,WeatherDisplay:10.37,2013-05-29 14:32:00,
2013-05-29 10:37:00,81.9,64.6,30.23,WNW,292,6.9,6.9,56,0.00,CLR,SKC,0.00,WeatherDisplay:10.37,2013-05-29 14:37:00,
2013-05-29 10:42:00,81.9,64.6,30.23,North,0,8.1,8.1,56,0.00,CLR,SKC,0.00,WeatherDisplay:10.37,2013-05-29 14:42:00,
2013-05-29 10:47:00,81.9,65.6,30.23,North,0,6.9,6.9,58,0.00,CLR,SKC,0.00,WeatherDisplay:10.37,2013-05-29 14:47:00,
2013-05-29 10:52:00,82.8,66.0,30.22,SE,135,6.9,6.9,57,0.00,CLR,SKC,0.00,WeatherDisplay:10.37,2013-05-29 14:52:00,
2013-05-29 10:57:00,82.6,64.8,30.22,NW,315,6.0,6.0,55,0.00,CLR,SKC,0.00,WeatherDisplay:10.37,2013-05-29 14:57:00,
2013-05-29 11:02:00,82.9,65.1,30.22,NNE,22,5.8,5.8,55,0.00,CLR,SKC,0.00,WeatherDisplay:10.37,2013-05-29 15:02:00,
2013-05-29 11:07:00,83.1,65.3,30.23,SW,225,8.1,8.1,55,0.00,CLR,SKC,0.00,WeatherDisplay:10.37,2013-05-29 15:07:00,
2013-05-29 11:12:00,82.8,64.9,30.23,North,0,12.7,12.7,55,0.00,CLR,SKC,0.00,WeatherDisplay:10.37,2013-05-29 15:12:00,
2013-05-29 11:17:00,82.2,63.9,30.23,NNE,22,12.7,12.7,54,0.00,CLR,SKC,0.00,WeatherDisplay:10.37,2013-05-29 15:17:00,
2013-05-29 11:22:00,82.4,64.1,30.22,South,180,8.1,8.1,54,0.00,CLR,SKC,0.00,WeatherDisplay:10.37,2013-05-29 15:22:00,
2013-05-29 11:27:00,83.3,67.0,30.22,NW,315,6.9,6.9,58,0.00,CLR,SKC,0.00,WeatherDisplay:10.37,2013-05-29 15:27:00,
2013-05-29 11:32:00,83.7,66.3,30.22,North,0,6.9,6.9,56,0.00,CLR,SKC,0.00,WeatherDisplay:10.37,2013-05-29 15:32:00,
2013-05-29 11:37:00,83.8,65.4,30.22,NW,315,7.6,7.6,54,0.00,CLR,SKC,0.00,WeatherDisplay:10.37,2013-05-29 15:37:00,
2013-05-29 11:42:00,83.1,64.2,30.22,West,270,9.2,9.2,53,0.00,CLR,SKC,0.00,WeatherDisplay:10.37,2013-05-29 15:42:00,
2013-05-29 11:47:00,82.9,65.6,30.23,NW,315,9.2,9.2,56,0.00,CLR,SKC,0.00,WeatherDisplay:10.37,2013-05-29 15:47:00,
2013-05-29 11:52:00,83.7,66.3,30.22,SW,225,5.8,5.8,56,0.00,CLR,SKC,0.00,WeatherDisplay:10.37,2013-05-29 15:52:00,
2013-05-29 11:57:00,84.0,65.6,30.22,West,270,9.2,9.2,54,0.00,CLR,SKC,0.00,WeatherDisplay:10.37,2013-05-29 15:57:00,
2013-05-29 12:02:00,84.9,65.9,30.21,NW,315,5.8,5.8,53,0.00,CLR,SKC,0.00,WeatherDisplay:10.37,2013-05-29 16:02:00,
2013-05-29 12:07:00,85.3,65.7,30.22,SW,225,5.8,5.8,52,0.00,CLR,SKC,0.00,WeatherDisplay:10.37,2013-05-29 16:07:00,
2013-05-29 12:12:00,85.6,67.6,30.22,East,90,4.6,4.6,55,0.00,CLR,SKC,0.00,WeatherDisplay:10.37,2013-05-29 16:12:00,
2013-05-29 12:17:00,85.6,65.4,30.22,NNW,338,6.9,6.9,51,0.00,CLR,SKC,0.00,WeatherDisplay:10.37,2013-05-29 16:17:00,
2013-05-29 12:22:00,85.3,66.2,30.22,NE,45,6.9,6.9,53,0.00,CLR,SKC,0.00,WeatherDisplay:10.37,2013-05-29 16:22:00,
2013-05-29 12:27:00,85.6,65.4,30.22,North,0,10.4,10.4,51,0.00,CLR,SKC,0.00,WeatherDisplay:10.37,2013-05-29 16:27:00,
2013-05-29 12:32:00,85.3,66.2,30.22,North,10,9.2,9.2,53,0.00,CLR,SKC,0.00,WeatherDisplay:10.37,2013-05-29 16:32:00,
2013-05-29 12:37:00,86.2,67.0,30.22,WNW,292,8.3,8.3,53,0.00,CLR,SKC,0.00,WeatherDisplay:10.37,2013-05-29 16:37:00,
2013-05-29 12:42:00,85.5,65.3,30.22,North,0,8.1,8.1,51,0.00,CLR,SKC,0.00,WeatherDisplay:10.37,2013-05-29 16:42:00,
2013-05-29 12:47:00,85.5,66.4,30.22,North,0,9.2,9.2,53,0.00,CLR,SKC,0.00,WeatherDisplay:10.37,2013-05-29 16:47:00,
2013-05-29 12:52:00,84.9,65.3,30.22,East,90,6.9,6.9,52,0.00,CLR,SKC,0.00,WeatherDisplay:10.37,2013-05-29 16:52:00,
2013-05-29 12:57:00,63.0,58.7,30.22,East,90,10.7,10.7,86,0.00,CLR,SKC,0.00,WeatherDisplay:10.37,2013-05-29 16:57:00,
2013-05-29 13:02:00,84.4,64.8,30.21,North,0,11.5,11.5,52,0.00,CLR,SKC,0.00,WeatherDisplay:10.37,2013-05-29 17:02:00,
2013-05-29 13:07:00,84.6,66.1,30.21,NW,315,12.7,12.7,54,0.00,CLR,SKC,0.00,WeatherDisplay:10.37,2013-05-29 17:07:00,
2013-05-29 13:12:00,85.1,66.0,30.21,West,270,8.1,8.1,53,0.00,CLR,SKC,0.00,WeatherDisplay:10.37,2013-05-29 17:12:00,
2013-05-29 13:17:00,85.6,66.0,30.21,North,0,11.5,11.5,52,0.00,CLR,SKC,0.00,WeatherDisplay:10.37,2013-05-29 17:17:00,
2013-05-29 13:22:00,84.7,64.6,30.21,NW,315,8.1,8.1,51,0.00,CLR,SKC,0.00,WeatherDisplay:10.37,2013-05-29 17:22:00,
2013-05-29 13:27:00,84.4,65.9,30.20,East,90,5.8,5.8,54,0.00,CLR,SKC,0.00,WeatherDisplay:10.37,2013-05-29 17:27:00,
2013-05-29 13:32:00,85.1,66.0,30.20,SW,225,3.8,3.8,53,0.00,CLR,SKC,0.00,WeatherDisplay:10.37,2013-05-29 17:32:00,
2013-05-29 13:37:00,85.1,67.1,30.20,SE,135,6.9,6.9,55,0.00,CLR,SKC,0.00,WeatherDisplay:10.37,2013-05-29 17:37:00,
2013-05-29 13:42:00,85.6,65.4,30.20,NW,315,8.1,8.1,51,0.00,CLR,SKC,0.00,WeatherDisplay:10.37,2013-05-29 17:42:00,
2013-05-29 13:47:00,84.9,65.3,30.20,NNW,338,10.4,10.4,52,0.00,CLR,SKC,0.00,WeatherDisplay:10.37,2013-05-29 17:47:00,
2013-05-29 13:52:00,85.6,67.1,30.20,North,0,5.8,5.8,54,0.00,CLR,SKC,0.00,WeatherDisplay:10.37,2013-05-29 17:52:00,
2013-05-29 13:57:00,87.1,66.8,30.19,WNW,292,13.0,13.0,51,0.00,CLR,SKC,0.00,WeatherDisplay:10.37,2013-05-29 17:57:00,
2013-05-29 14:02:00,86.7,65.9,30.19,WNW,292,5.8,5.8,50,0.00,CLR,SKC,0.00,WeatherDisplay:10.37,2013-05-29 18:02:00,
2013-05-29 14:07:00,86.7,64.1,30.19,SW,225,10.4,10.4,47,0.00,CLR,SKC,0.00,WeatherDisplay:10.37,2013-05-29 18:07:00,
2013-05-29 14:12:00,85.8,65.6,30.19,NNE,22,10.4,10.4,51,0.00,CLR,SKC,0.00,WeatherDisplay:10.37,2013-05-29 18:12:00,
2013-05-29 14:17:00,86.0,66.3,30.18,NE,45,8.3,8.3,52,0.00,CLR,SKC,0.00,WeatherDisplay:10.37,2013-05-29 18:17:00,
2013-05-29 14:22:00,85.3,65.1,30.18,NW,315,10.4,10.4,51,0.00,CLR,SKC,0.00,WeatherDisplay:10.37,2013-05-29 18:22:00,
2013-05-29 14:27:00,84.9,64.8,30.18,NE,45,12.7,12.7,51,0.00,CLR,SKC,0.00,WeatherDisplay:10.37,2013-05-29 18:27:00,
2013-05-29 14:32:00,85.8,65.0,30.18,NW,315,13.8,13.8,50,0.00,CLR,SKC,0.00,WeatherDisplay:10.37,2013-05-29 18:32:00,
2013-05-29 14:37:00,85.6,66.0,30.18,NNW,338,11.5,11.5,52,0.00,CLR,SKC,0.00,WeatherDisplay:10.37,2013-05-29 18:37:00,
2013-05-29 14:42:00,86.7,65.3,30.18,West,270,6.9,6.9,49,0.00,CLR,SKC,0.00,WeatherDisplay:10.37,2013-05-29 18:42:00,
2013-05-29 14:47:00,86.7,65.3,30.18,NW,315,8.1,8.1,49,0.00,CLR,SKC,0.00,WeatherDisplay:10.37,2013-05-29 18:47:00,
2013-05-29 14:52:00,85.8,65.6,30.18,North,0,8.3,8.3,51,0.00,CLR,SKC,0.00,WeatherDisplay:10.37,2013-05-29 18:52:00,
2013-05-29 14:57:00,85.6,66.0,30.18,North,0,9.2,9.2,52,0.00,CLR,SKC,0.00,WeatherDisplay:10.37,2013-05-29 18:57:00,
2013-05-29 15:02:00,84.6,64.4,30.18,NE,45,13.0,13.0,51,0.00,CLR,SKC,0.00,WeatherDisplay:10.37,2013-05-29 19:02:00,
2013-05-29 15:07:00,85.8,65.0,30.18,NW,315,6.9,6.9,50,0.00,CLR,SKC,0.00,WeatherDisplay:10.37,2013-05-29 19:07:00,
2013-05-29 15:12:00,86.7,64.1,30.18,NW,315,8.1,8.1,47,0.00,CLR,SKC,0.00,WeatherDisplay:10.37,2013-05-29 19:12:00,
2013-05-29 15:17:00,87.1,64.4,30.18,NW,315,8.3,8.3,47,0.00,CLR,SKC,0.00,WeatherDisplay:10.37,2013-05-29 19:17:00,
2013-05-29 15:22:00,87.4,65.3,30.18,NW,315,10.7,10.7,48,0.00,CLR,SKC,0.00,WeatherDisplay:10.37,2013-05-29 19:22:00,
2013-05-29 15:27:00,85.8,63.9,30.17,North,0,12.7,12.7,48,0.00,CLR,SKC,0.00,WeatherDisplay:10.37,2013-05-29 19:27:00,
2013-05-29 15:32:00,84.6,65.0,30.17,North,0,8.1,8.1,52,0.00,CLR,SKC,0.00,WeatherDisplay:10.37,2013-05-29 19:32:00,
2013-05-29 15:37:00,86.5,63.9,30.17,NE,45,6.9,6.9,47,0.00,CLR,SKC,0.00,WeatherDisplay:10.37,2013-05-29 19:37:00,
2013-05-29 15:42:00,87.1,64.4,30.17,SW,225,3.8,3.8,47,0.00,CLR,SKC,0.00,WeatherDisplay:10.37,2013-05-29 19:42:00,
2013-05-29 15:47:00,86.7,64.7,30.17,North,0,10.4,10.4,48,0.00,CLR,SKC,0.00,WeatherDisplay:10.37,2013-05-29 19:47:00,
2013-05-29 15:52:00,84.9,64.2,30.17,NW,315,8.1,8.1,50,0.00,CLR,SKC,0.00,WeatherDisplay:10.37,2013-05-29 19:52:00,
2013-05-29 15:57:00,86.5,64.5,30.16,SW,225,8.1,8.1,48,0.00,CLR,SKC,0.00,WeatherDisplay:10.37,2013-05-29 19:57:00,
2013-05-29 16:02:00,87.4,65.3,30.17,North,0,6.9,6.9,48,0.00,CLR,SKC,0.00,WeatherDisplay:10.37,2013-05-29 20:02:00,
2013-05-29 16:07:00,86.0,64.0,30.17,WNW,292,10.7,10.7,48,0.00,CLR,SKC,0.00,WeatherDisplay:10.37,2013-05-29 20:07:00,
2013-05-29 16:12:00,84.9,64.8,30.17,North,0,9.2,9.2,51,0.00,CLR,SKC,0.00,WeatherDisplay:10.37,2013-05-29 20:12:00,
2013-05-29 16:17:00,84.9,63.6,30.17,NW,315,13.8,13.8,49,0.00,CLR,SKC,0.00,WeatherDisplay:10.37,2013-05-29 20:17:00,
2013-05-29 16:22:00,85.3,65.1,30.17,NW,315,8.1,8.1,51,0.00,CLR,SKC,0.00,WeatherDisplay:10.37,2013-05-29 20:22:00,
2013-05-29 16:27:00,86.4,64.4,30.16,SW,225,8.1,8.1,48,0.00,CLR,SKC,0.00,WeatherDisplay:10.37,2013-05-29 20:27:00,
2013-05-29 16:32:00,87.1,65.6,30.17,North,0,6.0,6.0,49,0.00,CLR,SKC,0.00,WeatherDisplay:10.37,2013-05-29 20:32:00,
2013-05-29 16:37:00,86.7,64.1,30.16,South,180,12.7,12.7,47,0.00,CLR,SKC,0.00,WeatherDisplay:10.37,2013-05-29 20:37:00,
2013-05-29 16:42:00,86.7,64.1,30.17,South,180,4.6,4.6,47,0.00,CLR,SKC,0.00,WeatherDisplay:10.37,2013-05-29 20:42:00,
2013-05-29 16:47:00,87.1,65.0,30.16,South,180,3.8,3.8,48,0.00,CLR,SKC,0.00,WeatherDisplay:10.37,2013-05-29 20:47:00,
2013-05-29 16:52:00,86.0,63.4,30.16,NW,315,8.1,8.1,47,0.00,CLR,SKC,0.00,WeatherDisplay:10.37,2013-05-29 20:52:00,
2013-05-29 16:57:00,86.4,64.9,30.16,NW,315,10.4,10.4,49,0.00,CLR,SKC,0.00,WeatherDisplay:10.37,2013-05-29 20:57:00,
2013-05-29 17:02:00,86.5,64.5,30.16,NW,315,9.2,9.2,48,0.00,CLR,SKC,0.00,WeatherDisplay:10.37,2013-05-29 21:02:00,
2013-05-29 17:07:00,86.7,64.1,30.16,SW,225,6.0,6.0,47,0.00,CLR,SKC,0.00,WeatherDisplay:10.37,2013-05-29 21:07:00,
2013-05-29 17:12:00,88.0,65.2,30.16,North,0,3.5,3.5,47,0.00,CLR,SKC,0.00,WeatherDisplay:10.37,2013-05-29 21:12:00,
2013-05-29 17:17:00,88.9,64.8,30.16,South,180,3.5,3.5,45,0.00,CLR,SKC,0.00,WeatherDisplay:10.37,2013-05-29 21:17:00,
2013-05-29 17:22:00,89.2,65.1,30.16,North,0,5.8,5.8,45,0.00,CLR,SKC,0.00,WeatherDisplay:10.37,2013-05-29 21:22:00,
2013-05-29 17:27:00,87.6,64.3,30.16,SW,225,9.2,9.2,46,0.00,CLR,SKC,0.00,WeatherDisplay:10.37,2013-05-29 21:27:00,
2013-05-29 17:32:00,87.1,64.4,30.16,SW,225,6.0,6.0,47,0.00,CLR,SKC,0.00,WeatherDisplay:10.37,2013-05-29 21:32:00,
2013-05-29 17:37:00,87.6,64.9,30.16,NW,315,6.0,6.0,47,0.00,CLR,SKC,0.00,WeatherDisplay:10.37,2013-05-29 21:37:00,
2013-05-29 17:42:00,87.3,64.0,30.16,NW,315,6.9,6.9,46,0.00,CLR,SKC,0.00,WeatherDisplay:10.37,2013-05-29 21:42:00,
2013-05-29 17:47:00,87.4,64.7,30.16,NW,315,3.5,3.5,47,0.00,CLR,SKC,0.00,WeatherDisplay:10.37,2013-05-29 21:47:00,
2013-05-29 17:52:00,87.6,64.9,30.16,North,0,3.5,3.5,47,0.00,CLR,SKC,0.00,WeatherDisplay:10.37,2013-05-29 21:52:00,
2013-05-29 17:57:00,86.7,64.7,30.16,North,0,4.5,4.5,48,0.00,CLR,SKC,0.00,WeatherDisplay:10.37,2013-05-29 21:57:00,
2013-05-29 18:02:00,85.1,64.4,30.16,West,270,5.8,5.8,50,0.00,CLR,SKC,0.00,WeatherDisplay:10.37,2013-05-29 22:02:00,
2013-05-29 18:07:00,84.6,64.4,30.16,North,0,5.8,5.8,51,0.00,CLR,SKC,0.00,WeatherDisplay:10.37,2013-05-29 22:07:00,
2013-05-29 18:12:00,86.2,65.4,30.16,South,180,2.3,2.3,50,0.00,CLR,SKC,0.00,WeatherDisplay:10.37,2013-05-29 22:12:00,
2013-05-29 18:17:00,87.6,64.9,30.16,North,0,6.9,6.9,47,0.00,CLR,SKC,0.00,WeatherDisplay:10.37,2013-05-29 22:17:00,
2013-05-29 18:22:00,87.3,65.2,30.16,NW,315,6.0,6.0,48,0.00,CLR,SKC,0.00,WeatherDisplay:10.37,2013-05-29 22:22:00,
2013-05-29 18:27:00,86.7,64.1,30.16,WSW,248,8.1,8.1,47,0.00,CLR,SKC,0.00,WeatherDisplay:10.37,2013-05-29 22:27:00,
2013-05-29 18:32:00,86.7,64.1,30.16,North,0,5.8,5.8,47,0.00,CLR,SKC,0.00,WeatherDisplay:10.37,2013-05-29 22:32:00,
2013-05-29 18:37:00,85.8,64.5,30.16,North,0,8.1,8.1,49,0.00,CLR,SKC,0.00,WeatherDisplay:10.37,2013-05-29 22:37:00,
2013-05-29 18:42:00,86.4,64.4,30.16,North,0,4.6,4.6,48,0.00,CLR,SKC,0.00,WeatherDisplay:10.37,2013-05-29 22:42:00,
2013-05-29 18:47:00,86.5,63.9,30.16,NW,315,4.6,4.6,47,0.00,CLR,SKC,0.00,WeatherDisplay:10.37,2013-05-29 22:47:00,
2013-05-29 18:52:00,86.5,64.5,30.16,NW,315,4.6,4.6,48,0.00,CLR,SKC,0.00,WeatherDisplay:10.37,2013-05-29 22:52:00,
2013-05-29 18:57:00,86.2,64.2,30.16,North,0,3.5,3.5,48,0.00,CLR,SKC,0.00,WeatherDisplay:10.37,2013-05-29 22:57:00,
2013-05-29 19:02:00,86.4,64.4,30.16,NNE,13,6.9,6.9,48,0.00,CLR,SKC,0.00,WeatherDisplay:10.37,2013-05-29 23:02:00,
2013-05-29 19:07:00,86.0,64.0,30.16,NW,315,2.3,2.3,48,0.00,CLR,SKC,0.00,WeatherDisplay:10.37,2013-05-29 23:07:00,
2013-05-29 19:12:00,85.8,65.6,30.16,NW,315,3.8,3.8,51,0.00,CLR,SKC,0.00,WeatherDisplay:10.37,2013-05-29 23:12:00,
2013-05-29 19:17:00,85.5,65.8,30.15,NNW,338,5.4,5.4,52,0.00,CLR,SKC,0.00,WeatherDisplay:10.37,2013-05-29 23:17:00,
2013-05-29 19:22:00,84.9,64.8,30.15,North,0,5.8,5.8,51,0.00,CLR,SKC,0.00,WeatherDisplay:10.37,2013-05-29 23:22:00,
2013-05-29 19:27:00,84.0,65.0,30.15,NW,315,4.6,4.6,53,0.00,CLR,SKC,0.00,WeatherDisplay:10.37,2013-05-29 23:27:00,
2013-05-29 19:32:00,83.8,64.9,30.15,NNE,22,5.8,5.8,53,0.00,CLR,SKC,0.00,WeatherDisplay:10.37,2013-05-29 23:32:00,
2013-05-29 19:37:00,83.7,64.7,30.15,North,0,3.5,3.5,53,0.00,CLR,SKC,0.00,WeatherDisplay:10.37,2013-05-29 23:37:00,
2013-05-29 19:42:00,83.5,65.1,30.15,North,0,3.8,3.8,54,0.00,CLR,SKC,0.00,WeatherDisplay:10.37,2013-05-29 23:42:00,
2013-05-29 19:47:00,82.4,65.1,30.15,NNW,338,3.5,3.5,56,0.00,CLR,SKC,0.00,WeatherDisplay:10.37,2013-05-29 23:47:00,
2013-05-29 19:52:00,81.0,64.8,30.15,NW,315,3.5,3.5,58,0.00,CLR,SKC,0.00,WeatherDisplay:10.37,2013-05-29 23:52:00,
2013-05-29 19:57:00,80.2,65.6,30.15,North,0,3.8,3.8,61,0.00,CLR,SKC,0.00,WeatherDisplay:10.37,2013-05-29 23:57:00,
2013-05-29 20:02:00,79.7,65.5,30.15,North,0,3.5,3.5,62,0.00,CLR,SKC,0.00,WeatherDisplay:10.37,2013-05-30 00:02:00,
2013-05-29 20:07:00,78.8,65.6,30.15,North,0,2.3,2.3,64,0.00,CLR,SKC,0.00,WeatherDisplay:10.37,2013-05-30 00:07:00,
2013-05-29 20:12:00,78.1,65.8,30.15,NW,315,2.3,2.3,66,0.00,CLR,SKC,0.00,WeatherDisplay:10.37,2013-05-30 00:12:00,
2013-05-29 20:17:00,77.4,65.5,30.15,North,0,2.3,2.3,67,0.00,CLR,SKC,0.00,WeatherDisplay:10.37,2013-05-30 00:17:00,
2013-05-29 20:22:00,77.0,65.2,30.15,NW,315,2.3,2.3,67,0.00,CLR,SKC,0.00,WeatherDisplay:10.37,2013-05-30 00:22:00,
2013-05-29 20:27:00,76.5,65.5,30.14,North,0,2.3,2.3,69,0.00,CLR,SKC,0.00,WeatherDisplay:10.37,2013-05-30 00:27:00,
2013-05-29 20:32:00,75.7,65.3,30.14,NW,315,2.3,2.3,70,0.00,CLR,SKC,0.00,WeatherDisplay:10.37,2013-05-30 00:32:00,
2013-05-29 20:37:00,75.4,65.3,30.15,NW,315,1.6,1.6,71,0.00,CLR,SKC,0.00,WeatherDisplay:10.37,2013-05-30 00:37:00,
2013-05-29 20:42:00,75.2,65.6,30.14,NW,315,1.6,1.6,72,0.00,CLR,SKC,0.00,WeatherDisplay:10.37,2013-05-30 00:42:00,
2013-05-29 20:47:00,74.7,65.4,30.15,North,0,1.6,0.0,73,0.00,CLR,SKC,0.00,WeatherDisplay:10.37,2013-05-30 00:47:00,
2013-05-29 20:52:00,74.5,64.9,30.14,North,0,0.0,0.0,72,0.00,CLR,SKC,0.00,WeatherDisplay:10.37,2013-05-30 00:52:00,
2013-05-29 20:57:00,74.1,64.9,30.14,North,0,1.1,0.0,73,0.00,CLR,SKC,0.00,WeatherDisplay:10.37,2013-05-30 00:57:00,
2013-05-29 21:02:00,73.6,65.2,30.14,North,0,1.1,0.0,75,0.00,CLR,SKC,0.00,WeatherDisplay:10.37,2013-05-30 01:02:00,
2013-05-29 21:07:00,72.5,63.7,30.14,North,0,0.0,0.0,74,0.00,CLR,SKC,0.00,WeatherDisplay:10.37,2013-05-30 01:07:00,
2013-05-29 21:12:00,72.1,64.2,30.15,SE,135,1.1,0.0,76,0.00,CLR,SKC,0.00,WeatherDisplay:10.37,2013-05-30 01:12:00,
2013-05-29 21:17:00,72.1,64.2,30.15,North,0,0.7,0.0,76,0.00,CLR,SKC,0.00,WeatherDisplay:10.37,2013-05-30 01:17:00,
2013-05-29 21:22:00,71.6,64.7,30.15,North,0,1.6,0.0,79,0.00,CLR,SKC,0.00,WeatherDisplay:10.37,2013-05-30 01:22:00,
2013-05-29 21:27:00,71.2,65.5,30.15,North,0,1.6,1.6,82,0.00,CLR,SKC,0.00,WeatherDisplay:10.37,2013-05-30 01:27:00,
2013-05-29 21:32:00,70.7,65.3,30.15,North,0,1.6,1.6,83,0.00,CLR,SKC,0.00,WeatherDisplay:10.37,2013-05-30 01:32:00,
2013-05-29 21:37:00,70.3,65.3,30.16,North,0,1.6,1.6,84,0.00,CLR,SKC,0.00,WeatherDisplay:10.37,2013-05-30 01:37:00,
2013-05-29 21:42:00,70.7,65.6,30.16,North,0,1.6,1.6,84,0.00,CLR,SKC,0.00,WeatherDisplay:10.37,2013-05-30 01:42:00,
2013-05-29 21:47:00,70.7,65.6,30.16,North,0,1.6,1.6,84,0.00,CLR,SKC,0.00,WeatherDisplay:10.37,2013-05-30 01:47:00,
2013-05-29 21:52:00,71.2,66.2,30.17,North,0,3.5,3.5,84,0.00,CLR,SKC,0.00,WeatherDisplay:10.37,2013-05-30 01:52:00,
2013-05-29 21:57:00,71.4,66.3,30.17,North,0,3.5,3.5,84,0.00,CLR,SKC,0.00,WeatherDisplay:10.37,2013-05-30 01:57:00,
2013-05-29 22:02:00,71.2,66.2,30.17,WNW,292,3.8,3.8,84,0.00,CLR,SKC,0.00,WeatherDisplay:10.37,2013-05-30 02:02:00,
2013-05-29 22:07:00,71.8,66.3,30.17,North,0,3.8,3.8,83,0.00,CLR,SKC,0.00,WeatherDisplay:10.37,2013-05-30 02:07:00,
2013-05-29 22:12:00,72.0,66.2,30.18,North,0,3.5,3.5,82,0.00,CLR,SKC,0.00,WeatherDisplay:10.37,2013-05-30 02:12:00,
2013-05-29 22:17:00,71.8,66.0,30.18,North,0,2.3,2.3,82,0.00,CLR,SKC,0.00,WeatherDisplay:10.37,2013-05-30 02:17:00,
2013-05-29 22:22:00,71.6,65.8,30.18,NW,315,3.1,3.1,82,0.00,CLR,SKC,0.00,WeatherDisplay:10.37,2013-05-30 02:22:00,
2013-05-29 22:27:00,71.2,66.2,30.18,North,0,1.6,1.6,84,0.00,CLR,SKC,0.00,WeatherDisplay:10.37,2013-05-30 02:27:00,
2013-05-29 22:32:00,71.1,66.0,30.18,North,0,2.3,2.3,84,0.00,CLR,SKC,0.00,WeatherDisplay:10.37,2013-05-30 02:32:00,
2013-05-29 22:37:00,71.1,66.0,30.18,North,0,3.5,3.5,84,0.00,CLR,SKC,0.00,WeatherDisplay:10.37,2013-05-30 02:37:00,
2013-05-29 22:42:00,70.9,65.8,30.19,NW,315,3.5,3.5,84,0.00,CLR,SKC,0.00,WeatherDisplay:10.37,2013-05-30 02:42:00,
2013-05-29 22:47:00,71.1,65.6,30.19,North,0,4.6,4.6,83,0.00,CLR,SKC,0.00,WeatherDisplay:10.37,2013-05-30 02:47:00,
2013-05-29 22:52:00,71.2,65.8,30.19,NW,315,5.8,5.8,83,0.00,CLR,SKC,0.00,WeatherDisplay:10.37,2013-05-30 02:52:00,
2013-05-29 22:57:00,71.2,65.8,30.19,North,0,3.5,3.5,83,0.00,CLR,SKC,0.00,WeatherDisplay:10.37,2013-05-30 02:57:00,
2013-05-29 23:02:00,71.2,65.8,30.19,North,0,3.5,3.5,83,0.00,CLR,SKC,0.00,WeatherDisplay:10.37,2013-05-30 03:02:00,
2013-05-29 23:07:00,70.9,65.5,30.19,North,0,3.5,3.5,83,0.00,CLR,SKC,0.00,WeatherDisplay:10.37,2013-05-30 03:07:00,
2013-05-29 23:12:00,71.1,65.6,30.19,North,0,6.0,6.0,83,0.00,CLR,SKC,0.00,WeatherDisplay:10.37,2013-05-30 03:12:00,
2013-05-29 23:17:00,71.1,65.6,30.19,North,0,4.6,4.6,83,0.00,CLR,SKC,0.00,WeatherDisplay:10.37,2013-05-30 03:17:00,
2013-05-29 23:22:00,70.9,65.5,30.20,WNW,292,4.6,4.6,83,0.00,CLR,SKC,0.00,WeatherDisplay:10.37,2013-05-30 03:22:00,
2013-05-29 23:27:00,70.9,65.5,30.20,SW,225,3.5,3.5,83,0.00,CLR,SKC,0.00,WeatherDisplay:10.37,2013-05-30 03:27:00,
2013-05-29 23:32:00,70.7,64.9,30.20,NW,315,4.6,4.6,82,0.00,CLR,SKC,0.00,WeatherDisplay:10.37,2013-05-30 03:32:00,
2013-05-29 23:37:00,70.7,64.9,30.20,NW,315,4.6,4.6,82,0.00,CLR,SKC,0.00,WeatherDisplay:10.37,2013-05-30 03:37:00,
2013-05-29 23:42:00,71.2,65.5,30.20,North,0,5.8,5.8,82,0.00,CLR,SKC,0.00,WeatherDisplay:10.37,2013-05-30 03:42:00,
2013-05-29 23:47:00,71.2,65.1,30.20,NW,315,5.8,5.8,81,0.00,CLR,SKC,0.00,WeatherDisplay:10.37,2013-05-30 03:47:00,
2013-05-29 23:52:00,71.2,65.1,30.20,NW,315,5.4,5.4,81,0.00,CLR,SKC,0.00,WeatherDisplay:10.37,2013-05-30 03:52:00,
2013-05-29 23:57:00,71.4,65.3,30.21,NNW,338,4.6,4.6,81,0.00,CLR,SKC,0.00,WeatherDisplay:10.37,2013-05-30 03:57:00,